QPF
0.00 0.00 0.00 0.00 0.00 0.00 0.00 0.00 0.00 0.00 0.00 0.00 0.00 0.00 0.00 0.00 0.00 0.01 0.04 0.04 0.03 0.02 0.00 0.01 0.02 0.02 0.02 0.01 0.01 0.01 0.01 0.02 0.01 0.03 0.04 0.04 0.01 0.02 0.02 0.01 0.01 0.01 0.00 0.02 0.03 0.02 0.02 0.00 0.00 0.00 0.00 0.00 0.00 0.00
0.01 0.01 0.00 0.00 0.00 0.00 0.00 0.00 0.00 0.00 0.00 0.00 0.00 0.00 0.01 0.01 0.01 0.03 0.02 0.02 0.01 0.02 0.00 0.00 0.00 0.00 0.00 0.01 0.01 0.01 0.02 0.02 0.03 0.04 0.05 0.03 0.01 0.01 0.01 0.02 0.00 0.01 0.01 0.01 0.01 0.03 0.01 0.00 0.00 0.00 0.00 0.00 0.00 0.00
0.02 0.01 0.01 0.00 0.00 0.00 0.00 0.00 0.00 0.00 0.00 0.00 0.00 0.00 0.01 0.04 0.04 0.06 0.05 0.03 0.02 0.02 0.01 0.02 0.02 0.00 0.00 0.00 0.00 0.02 0.04 0.03 0.04 0.06 0.04 0.04 0.03 0.01 0.00 0.01 0.00 0.00 0.00 0.01 0.01 0.00 0.00 0.00 0.00 0.00 0.00 0.00 0.00 0.00
0.00 0.00 0.00 0.00 0.00 0.00 0.00 0.00 0.00 0.00 0.00 0.00 0.00 0.00 0.01 0.03 0.04 0.04 0.04 0.04 0.02 0.03 0.02 0.01 0.00 0.01 0.00 0.00 0.00 0.00 0.02 0.01 0.00 0.02 0.04 0.05 0.03 0.01 0.00 0.00 0.00 0.00 0.00 0.01 0.01 0.00 0.00 0.00 0.00 0.00 0.00 0.00 0.00 0.00
0.00 0.00 0.01 0.01 0.00 0.00 0.00 0.00 0.00 0.00 0.00 0.00 0.00 0.00 0.01 0.02 0.01 0.02 0.04 0.04 0.02 0.03 0.04 0.01 0.01 0.00 0.00 0.00 0.00 0.00 0.01 0.01 0.01 0.02 0.04 0.03 0.03 0.02 0.01 0.01 0.01 0.01 0.01 0.01 0.01 0.01 0.01 0.00 0.00 0.00 0.00 0.00 0.00 0.00
0.00 0.01 0.01 0.00 0.00 0.00 0.00 0.00 0.00 0.00 0.00 0.00 0.00 0.00 0.01 0.02 0.00 0.01 0.02 0.03 0.02 0.00 0.01 0.02 0.02 0.00 0.00 0.00 0.02 0.02 0.01 0.01 0.00 0.02 0.03 0.03 0.03 0.02 0.02 0.01 0.01 0.02 0.01 0.00 0.00 0.01 0.01 0.00 0.00 0.00 0.00 0.00 0.00 0.00
0.00 0.00 0.00 0.00 0.00 0.00 0.00 0.00 0.00 0.00 0.00 0.00 0.00 0.00 0.02 0.01 0.02 0.02 0.03 0.01 0.01 0.00 0.02 0.02 0.02 0.00 0.00 0.01 0.06 0.06 0.02 0.02 0.00 0.01 0.01 0.02 0.02 0.03 0.02 0.00 0.00 0.00 0.00 0.00 0.00 0.00 0.01 0.00 0.00 0.00 0.00 0.00 0.00 0.00
0.00 0.00 0.00 0.00 0.00 0.00 0.00 0.00 0.00 0.00 0.00 0.00 0.00 0.01 0.01 0.00 0.01 0.01 0.01 0.00 0.00 0.01 0.01 0.02 0.02 0.02 0.00 0.01 0.07 0.06 0.03 0.00 0.01 0.02 0.02 0.03 0.02 0.04 0.01 0.00 0.00 0.00 0.00 0.00 0.00 0.01 0.02 0.01 0.00 0.00 0.00 0.00 0.00 0.00
0.00 0.00 0.00 0.00 0.00 0.00 0.00 0.00 0.00 0.00 0.00 0.00 0.01 0.00 0.00 0.01 0.01 0.01 0.00 0.00 0.01 0.02 0.03 0.02 0.02 0.02 0.00 0.01 0.02 0.05 0.03 0.02 0.02 0.02 0.03 0.04 0.03 0.02 0.00 0.00 0.00 0.00 0.00 0.00 0.00 0.00 0.00 0.00 0.00 0.00 0.00 0.00 0.00 0.00
0.00 0.00 0.00 0.00 0.00 0.00 0.00 0.00 0.00 0.00 0.00 0.01 0.00 0.00 0.01 0.01 0.01 0.01 0.01 0.01 0.02 0.02 0.02 0.01 0.00 0.01 0.00 0.01 0.01 0.02 0.03 0.02 0.02 0.04 0.04 0.03 0.02 0.00 0.00 0.00 0.00 0.00 0.00 0.00 0.00 0.00 0.00 0.00 0.00 0.00 0.00 0.00 0.00 0.00
0.00 0.00 0.00 0.00 0.00 0.00 0.00 0.00 0.00 0.01 0.01 0.00 0.00 0.01 0.01 0.00 0.02 0.02 0.02 0.01 0.01 0.01 0.01 0.00 0.00 0.01 0.01 0.01 0.02 0.02 0.01 0.01 0.02 0.06 0.04 0.04 0.04 0.00 0.00 0.00 0.01 0.00 0.00 0.00 0.00 0.00 0.00 0.00 0.00 0.00 0.00 0.00 0.00 0.00
0.00 0.00 0.00 0.00 0.00 0.00 0.00 0.00 0.00 0.02 0.00 0.00 0.01 0.00 0.01 0.01 0.01 0.01 0.00 0.00 0.00 0.01 0.00 0.00 0.01 0.01 0.01 0.00 0.01 0.03 0.02 0.01 0.02 0.03 0.04 0.04 0.01 0.00 0.01 0.05 0.02 0.02 0.01 0.00 0.00 0.00 0.00 0.00 0.00 0.00 0.00 0.00 0.00 0.00
0.00 0.00 0.00 0.00 0.00 0.00 0.00 0.00 0.01 0.01 0.00 0.00 0.00 0.00 0.00 0.00 0.00 0.00 0.00 0.00 0.01 0.00 0.00 0.00 0.02 0.02 0.03 0.02 0.03 0.03 0.01 0.02 0.03 0.05 0.06 0.03 0.00 0.00 0.05 0.04 0.00 0.01 0.01 0.01 0.00 0.00 0.00 0.00 0.00 0.00 0.00 0.00 0.00 0.00
0.00 0.00 0.00 0.00 0.00 0.00 0.00 0.00 0.00 0.00 0.01 0.01 0.00 0.00 0.00 0.00 0.00 0.00 0.00 0.00 0.00 0.00 0.00 0.00 0.02 0.03 0.04 0.03 0.04 0.02 0.01 0.02 0.03 0.03 0.03 0.00 0.00 0.00 0.02 0.02 0.00 0.00 0.00 0.00 0.00 0.00 0.00 0.00 0.00 0.00 0.00 0.00 0.00 0.00
0.00 0.00 0.00 0.00 0.00 0.00 0.01 0.00 0.00 0.00 0.00 0.00 0.00 0.00 0.00 0.00 0.00 0.00 0.00 0.00 0.00 0.00 0.00 0.00 0.02 0.03 0.03 0.02 0.03 0.02 0.02 0.02 0.02 0.03 0.04 0.00 0.00 0.00 0.00 0.00 0.00 0.00 0.00 0.00 0.00 0.00 0.00 0.00 0.00 0.00 0.00 0.00 0.00 0.00
0.00 0.00 0.00 0.00 0.00 0.01 0.01 0.00 0.01 0.00 0.00 0.00 0.00 0.00 0.00 0.00 0.00 0.00 0.00 0.00 0.00 0.00 0.00 0.01 0.02 0.03 0.01 0.02 0.02 0.03 0.02 0.02 0.01 0.01 0.02 0.00 0.00 0.00 0.00 0.00 0.00 0.00 0.00 0.00 0.00 0.00 0.00 0.00 0.00 0.00 0.00 0.00 0.00 0.00
0.00 0.00 0.00 0.00 0.00 0.02 0.01 0.01 0.01 0.00 0.00 0.00 0.00 0.00 0.00 0.00 0.00 0.00 0.00 0.00 0.00 0.00 0.02 0.05 0.04 0.02 0.03 0.03 0.02 0.03 0.04 0.02 0.00 0.00 0.00 0.00 0.00 0.00 0.00 0.00 0.00 0.00 0.00 0.00 0.00 0.00 0.00 0.00 0.00 0.00 0.00 0.00 0.00 0.00
0.00 0.00 0.00 0.01 0.01 0.02 0.01 0.01 0.01 0.00 0.00 0.00 0.00 0.00 0.00 0.00 0.00 0.00 0.00 0.00 0.00 0.00 0.01 0.02 0.03 0.02 0.01 0.01 0.01 0.00 0.00 0.00 0.00 0.00 0.00 0.00 0.00 0.00 0.00 0.00 0.00 0.00 0.00 0.00 0.00 0.00 0.00 0.00 0.00 0.00 0.00 0.00 0.00 0.00
0.00 0.00 0.00 0.00 0.01 0.01 0.01 0.01 0.01 0.00 0.00 0.00 0.00 0.00 0.00 0.00 0.00 0.00 0.00 0.00 0.00 0.00 0.01 0.03 0.02 0.00 0.00 0.00 0.00 0.00 0.00 0.00 0.00 0.00 0.00 0.00 0.00 0.00 0.00 0.00 0.00 0.00 0.00 0.00 0.00 0.00 0.00 0.00 0.00 0.00 0.00 0.00 0.00 0.00
0.00 0.00 0.00 0.00 0.01 0.02 0.00 0.00 0.00 0.00 0.00 0.00 0.00 0.00 0.00 0.00 0.00 0.00 0.00 0.00 0.00 0.01 0.01 0.01 0.00 0.00 0.00 0.00 0.00 0.00 0.00 0.00 0.00 0.00 0.00 0.00 0.00 0.00 0.00 0.00 0.00 0.00 0.00 0.00 0.00 0.00 0.00 0.00 0.00 0.00 0.00 0.00 0.00 0.00
0.00 0.00 0.00 0.00 0.01 0.01 0.01 0.00 0.00 0.00 0.00 0.00 0.00 0.00 0.00 0.00 0.00 0.00 0.00 0.01 0.02 0.01 0.01 0.00 0.01 0.01 0.01 0.01 0.01 0.00 0.00 0.00 0.01 0.00 0.00 0.00 0.00 0.00 0.00 0.00 0.00 0.00 0.00 0.00 0.00 0.00 0.00 0.00 0.00 0.00 0.00 0.00 0.00 0.00
0.00 0.00 0.01 0.01 0.00 0.01 0.01 0.00 0.00 0.01 0.00 0.00 0.00 0.00 0.00 0.00 0.00 0.00 0.00 0.01 0.01 0.00 0.01 0.02 0.02 0.01 0.01 0.01 0.01 0.01 0.01 0.01 0.00 0.00 0.00 0.00 0.00 0.00 0.01 0.01 0.01 0.01 0.00 0.00 0.00 0.00 0.00 0.00 0.00 0.00 0.00 0.00 0.00 0.00
0.00 0.01 0.02 0.01 0.01 0.01 0.01 0.01 0.01 0.01 0.00 0.00 0.00 0.00 0.00 0.00 0.00 0.00 0.00 0.00 0.00 0.00 0.00 0.00 0.00 0.00 0.00 0.00 0.00 0.00 0.00 0.00 0.00 0.01 0.00 0.00 0.01 0.00 0.01 0.01 0.00 0.00 0.00 0.00 0.00 0.00 0.00 0.00 0.00 0.00 0.00 0.00 0.00 0.00
0.00 0.01 0.01 0.00 0.00 0.01 0.01 0.01 0.01 0.00 0.00 0.00 0.00 0.00 0.00 0.00 0.00 0.00 0.00 0.00 0.00 0.00 0.00 0.00 0.00 0.00 0.00 0.00 0.00 0.00 0.00 0.00 0.00 0.00 0.00 0.00 0.00 0.00 0.00 0.00 0.00 0.00 0.00 0.00 0.00 0.00 0.00 0.00 0.00 0.00 0.00 0.00 0.00 0.00
0.00 0.01 0.01 0.01 0.01 0.01 0.01 0.00 0.00 0.00 0.00 0.00 0.00 0.00 0.00 0.00 0.00 0.00 0.00 0.00 0.00 0.00 0.00 0.00 0.00 0.00 0.00 0.00 0.00 0.00 0.00 0.00 0.00 0.00 0.00 0.00 0.00 0.00 0.00 0.00 0.00 0.00 0.00 0.00 0.00 0.00 0.00 0.00 0.00 0.00 0.00 0.00 0.00 0.00
0.00 0.00 0.00 0.00 0.00 0.00 0.00 0.00 0.00 0.00 0.00 0.00 0.00 0.00 0.00 0.00 0.00 0.00 0.00 0.00 0.00 0.00 0.00 0.00 0.00 0.00 0.00 0.00 0.00 0.00 0.00 0.00 0.00 0.00 0.00 0.00 0.00 0.00 0.00 0.00 0.00 0.00 0.00 0.00 0.00 0.00 0.00 0.00 0.00 0.00 0.00 0.00 0.00 0.00
0.00 0.00 0.00 0.00 0.00 0.00 0.00 0.00 0.00 0.00 0.00 0.00 0.00 0.00 0.00 0.00 0.00 0.00 0.00 0.00 0.00 0.00 0.00 0.00 0.00 0.00 0.00 0.00 0.00 0.00 0.00 0.00 0.00 0.00 0.00 0.00 0.00 0.00 0.00 0.00 0.00 0.00 0.00 0.00 0.00 0.00 0.00 0.00 0.00 0.00 0.00 0.00 0.00 0.00
0.00 0.00 0.00 0.00 0.00 0.00 0.00 0.00 0.00 0.00 0.00 0.00 0.00 0.00 0.00 0.00 0.00 0.00 0.00 0.00 0.00 0.00 0.00 0.00 0.00 0.00 0.00 0.00 0.00 0.00 0.00 0.00 0.00 0.00 0.00 0.00 0.00 0.00 0.00 0.00 0.00 0.00 0.00 0.00 0.00 0.00 0.00 0.00 0.00 0.00 0.00 0.00 0.00 0.00
0.00 0.00 0.00 0.00 0.00 0.00 0.00 0.00 0.00 0.00 0.00 0.00 0.00 0.00 0.00 0.00 0.00 0.00 0.00 0.00 0.00 0.00 0.00 0.00 0.00 0.00 0.00 0.00 0.00 0.00 0.00 0.00 0.00 0.00 0.00 0.00 0.00 0.00 0.00 0.00 0.00 0.00 0.00 0.00 0.00 0.00 0.00 0.00 0.00 0.00 0.00 0.00 0.00 0.00
0.00 0.00 0.00 0.00 0.00 0.00 0.00 0.00 0.00 0.00 0.00 0.00 0.00 0.00 0.00 0.00 0.00 0.00 0.00 0.00 0.00 0.00 0.00 0.00 0.00 0.00 0.00 0.00 0.00 0.00 0.00 0.00 0.00 0.00 0.00 0.00 0.00 0.00 0.00 0.00 0.00 0.00 0.00 0.00 0.00 0.00 0.00 0.00 0.00 0.00 0.00 0.00 0.00 0.00
0.00 0.00 0.00 0.00 0.00 0.00 0.00 0.00 0.00 0.00 0.00 0.00 0.00 0.00 0.00 0.00 0.00 0.00 0.00 0.00 0.00 0.00 0.00 0.00 0.00 0.00 0.00 0.00 0.00 0.00 0.00 0.00 0.00 0.00 0.00 0.00 0.00 0.00 0.00 0.00 0.00 0.00 0.00 0.00 0.00 0.00 0.00 0.00 0.00 0.00 0.00 0.00 0.00 0.00
0.00 0.00 0.00 0.00 0.00 0.00 0.00 0.00 0.00 0.00 0.00 0.00 0.00 0.00 0.00 0.00 0.00 0.00 0.00 0.00 0.00 0.00 0.00 0.00 0.00 0.00 0.00 0.00 0.00 0.00 0.00 0.00 0.00 0.00 0.00 0.00 0.00 0.00 0.00 0.00 0.00 0.00 0.00 0.00 0.00 0.00 0.00 0.00 0.00 0.00 0.00 0.00 0.00 0.00
0.00 0.00 0.00 0.00 0.00 0.00 0.00 0.00 0.00 0.00 0.00 0.00 0.00 0.00 0.00 0.00 0.00 0.00 0.00 0.00 0.00 0.00 0.00 0.00 0.00 0.00 0.00 0.00 0.00 0.00 0.00 0.00 0.00 0.00 0.00 0.00 0.00 0.00 0.00 0.00 0.00 0.00 0.00 0.00 0.00 0.00 0.00 0.00 0.00 0.00 0.00 0.00 0.00 0.00
MSLP
1030.03 1029.97 1029.96 1029.97 1029.90 1029.73 1029.51 1029.28 1029.17 1028.98 1028.75 1028.44 1028.04 1027.67 1027.28 1026.97 1026.81 1026.40 1025.56 1025.45 1025.63 1024.78 1022.80 1021.38 1021.16 1020.90 1020.26 1019.55 1019.08 1018.87 1017.93 1017.56 1016.01 1015.37 1014.13 1013.20 1012.04 1011.56 1010.49 1009.68 1009.95 1010.10 1010.46 1009.29 1008.38 1006.94 1005.75 1004.34 1002.08 1001.41 1001.88 1001.22 1000.43 998.97
1029.60 1029.52 1029.51 1029.52 1029.47 1029.37 1029.23 1029.08 1029.00 1028.80 1028.53 1028.21 1027.88 1027.52 1027.13 1026.77 1026.50 1026.31 1025.60 1024.90 1025.44 1025.58 1023.26 1022.12 1021.31 1020.77 1020.48 1020.07 1020.07 1019.24 1019.10 1018.58 1017.94 1017.30 1016.29 1014.78 1013.27 1012.51 1011.71 1010.75 1010.85 1010.81 1011.83 1010.94 1009.04 1008.01 1007.27 1005.87 1004.84 1004.26 1003.41 1002.55 1001.44 1000.52
1029.05 1029.02 1028.96 1029.05 1029.07 1028.93 1028.87 1028.79 1028.71 1028.54 1028.25 1027.94 1027.64 1027.31 1026.89 1026.45 1026.08 1025.87 1025.43 1025.37 1025.33 1024.68 1022.48 1020.69 1019.59 1019.34 1019.32 1019.84 1020.01 1019.76 1019.12 1018.82 1018.75 1019.29 1018.17 1016.39 1014.55 1013.44 1012.24 1011.59 1011.40 1011.64 1012.00 1011.18 1010.30 1008.80 1008.62 1007.23 1006.32 1005.46 1004.51 1003.64 1002.53 1001.16
1028.46 1028.52 1028.54 1028.55 1028.62 1028.48 1028.44 1028.42 1028.31 1028.21 1028.00 1027.62 1027.35 1027.01 1026.58 1026.12 1025.56 1025.17 1024.87 1024.47 1024.99 1024.82 1023.06 1020.12 1019.08 1019.18 1018.70 1018.97 1019.18 1019.36 1019.22 1019.24 1019.12 1019.24 1018.75 1017.11 1015.57 1014.30 1013.39 1012.84 1012.30 1012.29 1012.52 1012.36 1011.43 1011.17 1009.91 1009.12 1008.77 1007.29 1005.59 1004.53 1003.41 1002.23
1027.85 1027.94 1027.99 1028.05 1028.17 1028.13 1028.08 1028.01 1027.94 1027.84 1027.63 1027.28 1027.03 1026.73 1026.28 1025.76 1025.24 1024.53 1024.23 1024.41 1024.83 1025.09 1023.25 1020.86 1019.46 1018.65 1018.73 1018.80 1018.80 1018.96 1019.12 1019.23 1019.19 1019.19 1018.24 1016.75 1015.38 1014.77 1013.74 1013.04 1012.27 1012.64 1013.64 1013.68 1013.10 1013.39 1013.11 1011.69 1010.92 1009.31 1007.53 1006.02 1004.81 1003.99
1027.28 1027.43 1027.52 1027.57 1027.69 1027.75 1027.80 1027.74 1027.64 1027.47 1027.27 1026.96 1026.70 1026.40 1025.97 1025.56 1025.15 1024.61 1024.18 1024.06 1024.56 1025.27 1024.35 1021.30 1018.89 1018.36 1018.48 1018.51 1018.43 1018.48 1018.68 1019.06 1019.42 1018.99 1017.71 1016.41 1015.24 1015.22 1014.02 1012.55 1012.45 1012.96 1013.19 1013.65 1013.75 1013.76 1013.45 1012.49 1011.49 1009.79 1008.55 1007.28 1005.91 1005.15
1026.63 1026.83 1026.98 1027.03 1027.15 1027.24 1027.35 1027.43 1027.35 1027.19 1026.90 1026.62 1026.34 1026.01 1025.61 1025.19 1024.80 1024.92 1024.70 1024.94 1025.04 1025.43 1024.50 1021.78 1019.05 1018.24 1018.27 1018.16 1018.14 1018.18 1018.57 1018.74 1019.24 1018.81 1017.33 1015.94 1014.79 1015.17 1014.04 1012.60 1011.47 1011.45 1011.54 1011.94 1012.29 1012.78 1012.91 1012.35 1011.57 1010.28 1008.82 1007.77 1006.79 1005.48
1026.08 1026.29 1026.42 1026.56 1026.71 1026.80 1026.78 1026.96 1026.96 1026.81 1026.49 1026.23 1025.94 1025.57 1025.21 1024.92 1024.71 1024.61 1024.52 1024.89 1025.22 1024.98 1024.03 1022.09 1019.50 1018.20 1018.42 1017.77 1017.84 1018.53 1018.60 1019.08 1018.62 1017.66 1016.23 1015.22 1014.27 1013.70 1013.05 1011.78 1011.04 1010.89 1010.98 1011.19 1011.49 1012.09 1012.48 1012.44 1011.66 1010.95 1009.95 1008.51 1007.88 1006.91
1025.61 1025.77 1025.97 1026.09 1026.24 1026.32 1026.44 1026.53 1026.56 1026.46 1026.15 1025.87 1025.54 1025.21 1024.89 1024.71 1024.95 1024.81 1025.11 1025.18 1024.96 1024.90 1023.31 1021.44 1019.78 1018.57 1018.27 1017.87 1017.37 1017.92 1017.97 1017.64 1016.62 1016.27 1015.32 1014.78 1013.48 1012.81 1011.82 1011.04 1010.72 1010.49 1010.54 1010.71 1011.00 1011.70 1011.41 1011.81 1012.02 1011.52 1010.58 1009.69 1009.27 1009.02
1025.09 1025.21 1025.51 1025.68 1025.78 1025.77 1025.90 1025.96 1026.11 1026.05 1025.72 1025.58 1025.71 1025.39 1024.76 1025.12 1025.30 1025.38 1025.26 1024.93 1024.58 1024.08 1023.03 1021.49 1019.70 1018.95 1018.59 1018.05 1017.41 1017.35 1017.39 1016.86 1015.84 1014.84 1014.49 1013.81 1012.50 1011.53 1011.02 1010.71 1010.33 1010.11 1010.05 1010.09 1010.36 1010.76 1011.03 1011.21 1011.39 1011.89 1011.41 1010.90 1010.12 1009.71
1024.52 1024.76 1024.96 1025.21 1025.32 1025.33 1025.39 1025.39 1025.53 1025.48 1025.26 1025.35 1025.29 1024.92 1025.08 1025.30 1025.13 1024.50 1024.06 1023.81 1023.15 1022.64 1021.63 1020.24 1019.45 1018.75 1018.62 1018.55 1018.19 1017.71 1017.35 1016.39 1015.18 1014.78 1014.00 1012.73 1012.36 1011.51 1010.92 1010.84 1011.15 1011.00 1009.91 1009.53 1009.68 1010.21 1010.72 1010.96 1011.41 1011.92 1012.18 1011.93 1011.00 1010.40
1023.82 1024.27 1024.46 1024.65 1024.78 1024.81 1024.88 1024.81 1024.81 1025.01 1024.93 1025.13 1024.69 1024.95 1024.82 1024.76 1024.36 1023.94 1022.68 1022.16 1021.41 1020.04 1019.51 1018.96 1018.53 1018.48 1018.24 1018.51 1018.51 1017.73 1017.26 1016.30 1014.94 1014.49 1013.92 1012.69 1012.58 1011.55 1011.55 1012.18 1012.42 1011.73 1010.11 1009.45 1009.36 1009.60 1009.90 1010.37 1011.20 1011.85 1012.46 1012.66 1012.05 1011.27
1023.06 1023.63 1023.97 1024.08 1024.28 1024.31 1024.19 1024.01 1023.82 1023.69 1024.54 1024.76 1024.45 1024.35 1024.25 1024.03 1023.23 1022.03 1020.93 1020.01 1019.42 1018.78 1018.58 1018.16 1018.20 1018.26 1018.33 1018.28 1018.36 1017.78 1017.12 1015.95 1015.08 1014.44 1013.36 1012.56 1011.89 1012.12 1012.87 1013.27 1013.65 1013.15 1011.26 1010.60 1010.50 1010.61 1010.72 1011.04 1011.54 1012.11 1012.55 1012.92 1012.88 1012.54
1022.56 1023.01 1023.43 1023.69 1023.77 1023.75 1023.63 1023.27 1023.24 1023.73 1023.26 1023.41 1023.38 1023.09 1022.61 1021.82 1020.93 1019.45 1018.77 1017.92 1017.85 1018.10 1017.79 1017.66 1017.89 1018.42 1018.25 1018.29 1017.88 1017.25 1016.36 1015.89 1014.71 1013.47 1012.92 1012.21 1012.28 1012.36 1012.68 1013.10 1013.07 1012.92 1012.34 1011.93 1011.50 1011.72 1012.05 1012.42 1012.74 1013.08 1013.44 1013.63 1013.56 1013.36
1022.17 1022.60 1023.03 1023.25 1023.22 1023.11 1023.31 1023.47 1023.67 1023.28 1022.62 1022.21 1021.91 1021.16 1020.24 1019.54 1018.79 1018.46 1018.10 1017.81 1017.73 1017.78 1017.78 1017.70 1017.76 1018.06 1017.85 1017.84 1017.29 1016.67 1016.08 1015.21 1013.82 1013.15 1013.18 1012.71 1012.77 1012.60 1012.75 1012.91 1012.61 1012.69 1012.30 1012.03 1011.97 1012.14 1012.56 1012.76 1012.86 1013.04 1013.44 1013.36 1013.52 1014.13
1021.79 1022.53 1022.43 1022.50 1022.63 1022.56 1022.98 1023.51 1023.40 1022.75 1021.99 1021.43 1020.71 1019.70 1018.96 1018.71 1018.43 1018.23 1017.97 1017.64 1017.35 1017.36 1017.91 1017.99 1017.99 1017.92 1017.59 1017.01 1016.46 1015.83 1014.80 1013.79 1013.20 1012.88 1012.86 1012.80 1012.76 1012.66 1012.72 1012.95 1013.02 1012.86 1012.63 1012.49 1012.43 1012.46 1012.53 1012.75 1012.74 1012.78 1012.80 1012.84 1013.70 1014.05
1021.57 1021.51 1021.54 1022.04 1022.28 1022.45 1023.07 1023.26 1022.71 1022.00 1021.08 1020.13 1019.26 1018.95 1018.62 1018.14 1017.92 1017.64 1017.44 1017.01 1016.82 1017.19 1017.55 1017.77 1017.79 1017.25 1016.83 1016.21 1015.35 1014.78 1013.85 1013.64 1013.10 1012.78 1012.81 1012.85 1012.72 1012.76 1012.70 1012.78 1012.96 1012.91 1012.86 1012.76 1012.76 1012.72 1012.82 1012.78 1012.63 1012.57 1012.50 1012.59 1012.77 1012.82
1020.45 1020.67 1021.33 1021.39 1021.71 1022.52 1022.90 1022.78 1021.99 1021.00 1019.99 1019.12 1018.60 1018.32 1018.17 1017.81 1017.50 1017.27 1016.99 1016.66 1016.80 1017.06 1017.18 1017.24 1017.22 1016.60 1016.05 1015.06 1014.16 1013.76 1013.64 1013.47 1013.02 1013.01 1012.99 1012.84 1012.84 1012.71 1012.63 1012.75 1012.72 1012.81 1012.83 1012.80 1012.76 1012.72 1012.63 1012.51 1012.47 1012.40 1012.37 1012.29 1012.23 1012.22
1019.56 1020.18 1020.92 1021.02 1021.20 1021.50 1021.97 1022.01 1021.49 1020.20 1018.96 1018.52 1018.12 1017.89 1017.55 1017.21 1017.00 1016.78 1016.67 1016.64 1016.62 1016.94 1017.36 1017.14 1016.86 1015.88 1015.11 1014.45 1013.77 1013.56 1013.18 1013.10 1012.89 1012.88 1012.94 1012.94 1012.92 1012.90 1012.89 1012.84 1012.88 1012.79 1012.64 1012.58 1012.56 1012.63 1012.62 1012.61 1012.50 1012.34 1012.23 1012.19 1012.28 1012.26
1019.71 1020.62 1021.06 1021.20 1021.33 1021.05 1021.14 1021.13 1020.74 1019.80 1018.79 1018.08 1017.73 1017.31 1016.85 1016.44 1016.31 1016.20 1016.20 1016.33 1016.50 1017.05 1017.11 1016.27 1015.46 1015.10 1015.10 1014.83 1013.96 1013.30 1013.16 1013.13 1013.15 1012.75 1012.71 1012.77 1012.70 1012.57 1012.62 1012.65 1012.57 1012.62 1012.69 1012.64 1012.68 1012.82 1012.78 1012.75 1012.79 1013.04 1013.28 1013.38 1013.49 1013.24
1020.03 1020.51 1021.20 1021.14 1021.17 1021.18 1020.92 1020.23 1019.81 1019.28 1018.30 1017.84 1017.21 1017.05 1016.56 1016.22 1015.96 1016.05 1016.15 1016.04 1016.32 1016.11 1015.68 1015.35 1015.07 1014.89 1014.65 1014.57 1014.42 1013.92 1013.59 1013.43 1013.15 1013.22 1013.14 1012.90 1012.67 1012.63 1012.60 1012.70 1012.90 1013.00 1013.10 1013.05 1013.20 1013.49 1013.91 1014.08 1014.10 1014.13 1014.14 1014.18 1014.24 1014.17
1018.96 1020.09 1020.90 1021.31 1021.07 1021.02 1020.52 1019.40 1019.01 1018.72 1018.22 1017.37 1017.00 1016.85 1016.51 1016.03 1015.83 1015.90 1016.16 1016.05 1015.36 1014.74 1014.64 1014.68 1014.61 1014.63 1014.58 1014.41 1014.20 1013.93 1013.71 1013.53 1013.63 1013.62 1013.52 1013.45 1013.28 1013.19 1013.18 1013.28 1013.40 1013.44 1013.50 1013.80 1014.16 1014.40 1014.67 1014.78 1014.73 1014.80 1014.79 1014.73 1014.56 1014.28
1019.07 1019.60 1019.70 1020.19 1020.32 1019.98 1019.35 1019.00 1018.97 1018.00 1017.61 1016.96 1016.74 1016.64 1016.13 1015.84 1015.59 1015.93 1015.67 1014.79 1014.40 1014.19 1014.43 1014.59 1014.65 1014.70 1014.62 1014.58 1014.60 1014.48 1014.53 1014.44 1014.21 1014.04 1013.99 1013.66 1013.51 1013.55 1013.57 1013.81 1014.29 1014.49 1014.45 1014.41 1014.68 1014.88 1014.98 1015.18 1015.17 1015.12 1014.97 1014.80 1014.56 1014.28
1018.41 1018.77 1018.69 1018.73 1018.72 1018.48 1018.62 1018.42 1017.97 1017.23 1016.78 1016.62 1016.31 1016.15 1015.58 1015.32 1015.60 1015.34 1014.52 1013.53 1013.50 1014.18 1014.40 1014.42 1014.55 1014.62 1014.58 1014.59 1014.74 1014.75 1015.04 1015.19 1015.00 1014.85 1014.91 1014.86 1014.51 1014.39 1014.45 1014.53 1014.63 1014.85 1015.02 1015.06 1015.04 1015.26 1015.53 1015.52 1015.50 1015.31 1015.11 1014.85 1014.55 1014.26
1017.79 1018.23 1017.97 1017.35 1017.38 1017.59 1017.41 1016.98 1016.63 1016.44 1016.24 1015.96 1015.73 1015.35 1014.72 1015.07 1014.93 1014.14 1013.44 1013.11 1013.56 1013.90 1013.99 1014.17 1014.41 1014.83 1014.84 1014.85 1014.96 1015.16 1015.46 1015.42 1015.18 1015.05 1015.15 1015.13 1015.00 1014.81 1014.69 1014.68 1015.04 1015.47 1015.64 1015.59 1015.83 1015.89 1015.82 1015.71 1015.60 1015.44 1015.26 1014.98 1014.76 1014.42
1016.32 1016.07 1015.89 1015.30 1015.54 1015.85 1015.58 1015.60 1015.52 1015.40 1015.32 1015.55 1015.15 1014.50 1014.48 1014.66 1014.29 1013.38 1012.59 1012.64 1013.16 1013.71 1014.14 1014.43 1014.46 1014.53 1014.82 1015.06 1015.13 1015.31 1015.65 1015.73 1015.66 1015.42 1015.35 1015.43 1015.51 1015.35 1015.30 1015.22 1015.46 1016.01 1016.31 1016.47 1016.34 1016.32 1016.13 1015.99 1015.80 1015.60 1015.34 1015.07 1014.89 1014.60
1014.66 1014.25 1014.35 1014.21 1014.16 1014.30 1014.30 1014.35 1014.62 1014.49 1014.32 1014.42 1014.08 1014.10 1014.23 1013.97 1012.97 1012.34 1012.26 1012.61 1012.89 1013.38 1013.59 1013.88 1014.10 1014.22 1014.51 1014.92 1015.30 1015.53 1015.78 1015.94 1016.11 1015.95 1015.92 1015.96 1016.11 1016.09 1016.02 1016.03 1016.03 1016.43 1016.61 1016.64 1016.83 1016.78 1016.61 1016.32 1016.07 1015.89 1015.62 1015.33 1015.09 1014.73
1013.19 1012.90 1013.23 1013.58 1013.69 1013.73 1013.86 1013.93 1014.00 1013.54 1013.23 1012.93 1012.96 1013.03 1012.89 1012.43 1011.90 1011.96 1012.12 1012.72 1013.17 1013.46 1013.83 1014.14 1014.39 1014.63 1014.87 1015.22 1015.49 1015.79 1016.01 1016.22 1016.41 1016.22 1016.13 1016.18 1016.23 1016.40 1016.63 1016.65 1016.86 1017.18 1017.05 1017.04 1017.06 1016.98 1016.81 1016.56 1016.38 1016.14 1015.87 1015.59 1015.29 1014.94
1012.11 1012.08 1012.66 1013.13 1013.40 1013.30 1013.19 1012.96 1012.63 1012.16 1011.73 1011.73 1012.05 1011.94 1011.84 1011.64 1012.08 1012.24 1012.66 1012.98 1013.33 1013.59 1014.00 1014.47 1014.84 1015.15 1015.39 1015.62 1015.76 1015.88 1016.01 1016.00 1015.97 1015.90 1015.90 1015.76 1015.96 1016.33 1016.56 1016.81 1016.96 1017.04 1017.06 1017.09 1017.13 1017.18 1017.05 1016.87 1016.68 1016.41 1016.06 1015.82 1015.58 1015.26
1011.08 1011.44 1011.89 1012.30 1012.47 1012.12 1011.89 1012.00 1012.09 1012.04 1011.84 1011.61 1011.79 1012.04 1011.90 1012.05 1012.45 1012.63 1012.77 1012.98 1013.20 1013.50 1013.73 1014.03 1014.31 1014.83 1014.98 1015.22 1015.45 1015.82 1015.99 1016.04 1016.04 1015.97 1015.81 1015.87 1015.95 1016.36 1016.72 1016.93 1017.04 1017.13 1017.17 1017.11 1016.97 1016.86 1016.94 1016.71 1016.53 1016.31 1016.18 1016.07 1015.82 1015.59
1010.32 1011.04 1011.20 1011.44 1011.54 1011.53 1011.67 1012.05 1012.78 1012.94 1012.82 1012.62 1012.55 1012.53 1012.20 1012.38 1012.33 1012.27 1012.43 1012.60 1012.87 1013.26 1013.52 1013.73 1013.97 1014.26 1014.51 1014.71 1014.90 1015.17 1015.31 1015.70 1015.85 1016.04 1016.21 1016.22 1016.37 1016.56 1016.81 1017.04 1017.19 1017.25 1017.23 1017.14 1017.06 1017.00 1016.94 1016.89 1016.82 1016.75 1016.67 1016.61 1016.48 1016.30
1010.05 1010.30 1010.44 1010.60 1011.05 1011.92 1012.32 1012.37 1012.38 1012.45 1012.28 1012.50 1012.22 1012.47 1012.61 1012.62 1011.91 1011.25 1011.75 1012.32 1012.62 1012.76 1012.84 1013.08 1013.33 1013.56 1013.99 1014.30 1014.53 1014.82 1014.92 1015.24 1015.62 1015.93 1016.21 1016.27 1016.43 1016.70 1017.03 1017.16 1017.33 1017.28 1017.26 1017.24 1017.25 1017.28 1017.28 1017.15 1017.20 1017.25 1017.28 1017.27 1017.25 1017.20
1009.79 1009.92 1010.19 1010.45 1010.57 1011.27 1011.76 1011.98 1011.86 1011.73 1011.77 1011.63 1011.54 1011.53 1011.76 1011.72 1011.06 1010.81 1011.68 1011.86 1011.87 1011.94 1012.20 1012.60 1012.97 1013.27 1013.62 1013.98 1014.38 1014.75 1015.08 1015.40 1015.79 1016.11 1016.34 1016.50 1016.65 1016.91 1017.09 1017.26 1017.34 1017.35 1017.35 1017.31 1017.41 1017.54 1017.58 1017.67 1017.77 1017.90 1018.01 1018.07 1018.13 1018.19
Thickness
5364 5359 5353 5347 5341 5335 5330 5325 5319 5314 5308 5304 5300 5295 5289 5283 5275 5270 5272 5267 5261 5262 5277 5287 5285 5282 5287 5295 5295 5303 5320 5320 5350 5355 5375 5381 5401 5405 5432 5451 5438 5451 5448 5468 5485 5498 5506 5521 5545 5550 5549 5563 5577 5599
5360 5355 5350 5344 5337 5331 5325 5320 5314 5309 5304 5299 5294 5288 5283 5277 5270 5268 5267 5268 5261 5253 5271 5277 5280 5282 5282 5285 5285 5297 5299 5308 5320 5329 5341 5365 5384 5395 5407 5422 5431 5437 5415 5428 5473 5487 5488 5506 5517 5525 5538 5549 5564 5579
5357 5352 5347 5340 5333 5328 5321 5316 5309 5305 5300 5295 5289 5283 5278 5272 5268 5266 5267 5263 5259 5259 5278 5289 5293 5293 5289 5284 5284 5286 5295 5302 5306 5301 5316 5340 5362 5383 5394 5408 5416 5417 5412 5431 5447 5480 5472 5495 5504 5514 5527 5537 5552 5571
5354 5348 5343 5336 5329 5325 5319 5312 5307 5301 5297 5292 5286 5280 5274 5270 5269 5268 5267 5266 5258 5255 5265 5292 5297 5291 5295 5291 5289 5290 5293 5297 5301 5301 5304 5325 5341 5366 5374 5386 5400 5405 5403 5409 5436 5431 5446 5457 5471 5492 5513 5527 5539 5556
5351 5345 5340 5333 5326 5320 5315 5309 5304 5299 5294 5289 5283 5277 5272 5268 5269 5270 5269 5264 5258 5255 5269 5282 5293 5297 5294 5292 5292 5292 5292 5292 5294 5293 5306 5324 5344 5350 5367 5382 5399 5393 5378 5389 5401 5402 5406 5425 5436 5464 5489 5509 5522 5532
5347 5341 5336 5330 5323 5317 5311 5305 5301 5297 5292 5286 5280 5274 5270 5268 5268 5269 5267 5265 5258 5252 5257 5277 5301 5300 5296 5295 5297 5297 5295 5291 5288 5292 5309 5325 5341 5339 5349 5375 5381 5378 5381 5380 5384 5393 5400 5416 5426 5458 5475 5492 5508 5517
5345 5339 5333 5327 5320 5314 5309 5302 5297 5294 5290 5284 5278 5273 5269 5270 5269 5266 5266 5259 5254 5250 5256 5275 5296 5302 5299 5300 5300 5300 5296 5293 5286 5290 5308 5325 5339 5329 5339 5359 5387 5392 5398 5400 5403 5401 5401 5411 5422 5444 5467 5481 5494 5509
5341 5336 5330 5324 5317 5312 5308 5301 5296 5292 5289 5283 5277 5272 5270 5271 5269 5269 5264 5258 5253 5251 5258 5268 5290 5301 5299 5302 5299 5294 5291 5283 5288 5299 5318 5326 5338 5342 5339 5366 5381 5388 5393 5398 5400 5399 5398 5402 5421 5430 5445 5467 5475 5490
5337 5332 5326 5321 5315 5311 5305 5300 5295 5290 5287 5281 5277 5273 5272 5272 5266 5266 5259 5255 5253 5252 5262 5279 5285 5292 5303 5303 5309 5301 5300 5299 5314 5310 5321 5328 5337 5334 5352 5366 5373 5382 5387 5393 5398 5395 5407 5406 5407 5418 5432 5443 5455 5460
5333 5329 5322 5317 5313 5310 5305 5301 5294 5289 5286 5280 5274 5271 5272 5266 5262 5259 5257 5255 5252 5255 5263 5273 5294 5290 5298 5300 5306 5307 5305 5308 5312 5329 5332 5332 5346 5358 5361 5364 5371 5378 5386 5392 5392 5397 5400 5404 5411 5406 5419 5426 5441 5449
5329 5324 5319 5314 5311 5308 5305 5301 5295 5290 5286 5280 5276 5276 5268 5263 5262 5264 5264 5262 5268 5266 5276 5290 5295 5296 5299 5291 5292 5301 5301 5315 5320 5322 5332 5343 5337 5352 5359 5357 5358 5363 5382 5391 5396 5396 5396 5400 5400 5399 5402 5410 5424 5437
5327 5320 5316 5312 5309 5307 5305 5302 5297 5291 5287 5281 5280 5272 5268 5264 5264 5263 5276 5280 5283 5294 5299 5301 5304 5303 5302 5297 5289 5299 5300 5316 5320 5335 5329 5337 5336 5354 5352 5342 5337 5346 5370 5383 5390 5395 5399 5400 5397 5395 5394 5393 5405 5420
5326 5318 5313 5312 5308 5307 5306 5305 5302 5298 5288 5282 5280 5274 5271 5270 5267 5275 5284 5295 5296 5307 5307 5309 5303 5302 5299 5299 5291 5296 5297 5312 5331 5322 5329 5341 5353 5348 5334 5327 5321 5326 5350 5362 5368 5375 5381 5384 5386 5385 5387 5386 5389 5397
5321 5316 5311 5309 5308 5307 5306 5307 5304 5296 5297 5293 5289 5284 5289 5288 5292 5310 5314 5320 5319 5312 5314 5314 5307 5297 5300 5294 5299 5299 5316 5318 5319 5332 5335 5346 5346 5344 5338 5331 5331 5328 5337 5342 5354 5357 5359 5360 5361 5361 5363 5366 5370 5379
5316 5312 5309 5307 5307 5308 5305 5302 5297 5296 5301 5301 5304 5300 5309 5316 5321 5320 5319 5318 5316 5314 5312 5310 5309 5304 5303 5297 5306 5311 5309 5310 5332 5337 5334 5342 5339 5340 5336 5333 5337 5334 5338 5342 5345 5346 5346 5350 5354 5357 5357 5365 5369 5362
5312 5306 5307 5306 5306 5308 5303 5297 5295 5299 5305 5307 5311 5315 5322 5318 5314 5313 5313 5313 5318 5315 5308 5307 5301 5296 5298 5309 5309 5310 5322 5329 5338 5341 5340 5340 5338 5339 5337 5333 5331 5332 5334 5337 5339 5341 5342 5342 5345 5350 5355 5360 5350 5351
5307 5307 5308 5304 5303 5303 5298 5295 5298 5303 5310 5317 5320 5322 5322 5322 5316 5316 5315 5317 5318 5312 5303 5303 5292 5301 5312 5311 5317 5325 5329 5331 5337 5340 5339 5337 5337 5335 5336 5334 5331 5331 5331 5333 5333 5334 5334 5337 5340 5344 5348 5353 5355 5359
5308 5307 5304 5303 5301 5297 5295 5295 5301 5309 5314 5324 5324 5324 5322 5322 5319 5317 5318 5318 5313 5308 5307 5303 5306 5307 5306 5316 5327 5333 5331 5331 5334 5332 5332 5332 5330 5332 5333 5331 5331 5330 5329 5329 5330 5331 5332 5334 5335 5337 5340 5344 5350 5354
5306 5303 5300 5299 5299 5300 5296 5295 5301 5309 5323 5326 5328 5327 5327 5326 5325 5323 5320 5316 5313 5307 5299 5299 5294 5302 5316 5325 5327 5327 5330 5328 5329 5328 5327 5327 5326 5325 5326 5326 5325 5326 5327 5328 5328 5328 5329 5328 5329 5332 5334 5336 5339 5342
5299 5293 5292 5291 5292 5297 5295 5297 5303 5310 5317 5326 5329 5329 5331 5332 5331 5328 5324 5318 5311 5297 5289 5296 5304 5309 5306 5309 5320 5326 5325 5324 5322 5324 5323 5324 5325 5326 5325 5324 5325 5325 5324 5324 5324 5315 5322 5321 5320 5318 5316 5316 5317 5321
5287 5286 5282 5285 5287 5289 5291 5299 5304 5309 5320 5322 5330 5329 5330 5333 5331 5325 5320 5321 5309 5305 5305 5305 5304 5305 5307 5308 5309 5314 5317 5317 5318 5316 5316 5318 5321 5321 5321 5320 5319 5318 5316 5316 5313 5309 5302 5300 5300 5300 5300 5300 5300 5302
5287 5279 5275 5275 5279 5280 5287 5302 5307 5309 5315 5324 5327 5326 5325 5326 5327 5325 5319 5315 5320 5325 5323 5316 5313 5308 5304 5306 5308 5311 5312 5314 5312 5310 5306 5307 5312 5312 5312 5311 5308 5307 5306 5302 5298 5295 5292 5292 5293 5291 5291 5291 5293 5296
5277 5276 5277 5276 5276 5281 5293 5296 5294 5311 5311 5320 5323 5318 5324 5326 5329 5325 5320 5330 5331 5332 5326 5320 5316 5312 5309 5307 5304 5304 5302 5302 5304 5305 5305 5308 5309 5307 5305 5302 5295 5293 5294 5295 5293 5290 5289 5286 5286 5285 5286 5287 5289 5290
5273 5271 5274 5276 5282 5288 5291 5291 5301 5311 5318 5316 5319 5314 5324 5329 5325 5324 5329 5345 5341 5329 5324 5322 5319 5314 5312 5309 5305 5303 5298 5295 5296 5297 5295 5292 5296 5296 5296 5295 5294 5291 5289 5288 5288 5285 5281 5280 5279 5280 5281 5282 5283 5285
5268 5264 5268 5275 5284 5285 5290 5299 5305 5310 5306 5315 5318 5321 5331 5327 5323 5333 5338 5343 5333 5326 5326 5322 5318 5310 5308 5307 5305 5301 5296 5296 5297 5296 5293 5293 5293 5294 5295 5294 5290 5285 5282 5282 5278 5276 5276 5276 5275 5274 5274 5275 5275 5276
5262 5271 5276 5289 5292 5293 5303 5301 5304 5308 5313 5306 5316 5330 5328 5320 5321 5329 5343 5338 5331 5320 5314 5310 5310 5310 5306 5303 5301 5298 5293 5292 5291 5293 5292 5289 5287 5287 5286 5285 5283 5275 5272 5269 5269 5267 5268 5268 5268 5267 5267 5267 5266 5266
5265 5272 5284 5295 5301 5304 5307 5311 5311 5311 5311 5308 5318 5318 5316 5314 5328 5340 5339 5333 5329 5321 5318 5313 5310 5309 5305 5301 5295 5293 5289 5286 5283 5284 5282 5280 5277 5276 5275 5273 5272 5266 5263 5261 5258 5257 5257 5258 5258 5257 5256 5256 5255 5255
5274 5285 5279 5287 5290 5298 5295 5298 5296 5304 5312 5322 5325 5318 5319 5327 5338 5338 5335 5325 5320 5316 5310 5304 5301 5297 5294 5290 5288 5285 5281 5279 5276 5277 5277 5275 5272 5268 5264 5261 5257 5252 5252 5252 5250 5250 5250 5250 5249 5249 5248 5246 5244 5244
5276 5285 5283 5276 5280 5287 5291 5298 5306 5317 5326 5326 5319 5323 5326 5335 5328 5326 5321 5318 5315 5311 5304 5296 5291 5286 5282 5279 5278 5278 5276 5276 5277 5277 5276 5279 5272 5265 5260 5255 5253 5251 5249 5248 5246 5244 5244 5244 5243 5243 5241 5239 5237 5237
5278 5283 5279 5277 5276 5284 5298 5304 5307 5311 5314 5316 5317 5316 5320 5319 5314 5314 5315 5314 5312 5307 5304 5300 5296 5288 5285 5281 5278 5273 5272 5271 5272 5273 5275 5273 5269 5261 5256 5253 5251 5249 5247 5246 5246 5245 5242 5243 5242 5241 5239 5236 5234 5234
5280 5275 5276 5278 5279 5288 5289 5288 5279 5281 5283 5288 5293 5298 5310 5308 5309 5311 5312 5312 5310 5305 5303 5300 5296 5291 5288 5283 5280 5276 5276 5271 5269 5267 5265 5264 5260 5258 5254 5251 5248 5246 5245 5244 5242 5240 5239 5238 5237 5236 5234 5232 5231 5231
5270 5269 5274 5274 5276 5268 5265 5271 5278 5280 5286 5282 5293 5290 5292 5295 5308 5319 5311 5306 5304 5303 5303 5301 5298 5294 5289 5284 5280 5274 5273 5270 5267 5264 5261 5261 5259 5255 5251 5248 5244 5244 5243 5242 5240 5237 5235 5235 5232 5230 5229 5228 5227 5226
5263 5265 5266 5267 5271 5265 5267 5270 5275 5280 5282 5288 5292 5298 5297 5301 5311 5317 5304 5304 5306 5306 5304 5300 5296 5292 5288 5284 5279 5274 5269 5265 5262 5259 5257 5256 5255 5253 5250 5248 5246 5246 5245 5244 5241 5238 5236 5233 5231 5227 5224 5221 5220 5218